TimeCST,TemperatureF,Dew PointF,Humidity,Sea Level PressureIn,VisibilityMPH,Wind Direction,Wind SpeedMPH,Gust SpeedMPH,PrecipitationIn,Events,Conditions,WindDirDegrees,DateUTC
12:15 AM,12.2,10.4,92,30.39,7.0,Calm,Calm,-,N/A,,Clear,0,2013-12-11 06:15:00
12:35 AM,10.4,10.4,100,30.39,4.0,Calm,Calm,-,N/A,,Clear,0,2013-12-11 06:35:00
12:55 AM,10.4,8.6,92,30.38,6.0,Calm,Calm,-,N/A,,Clear,0,2013-12-11 06:55:00
1:15 AM,8.6,6.8,92,30.39,2.0,SSW,3.5,-,N/A,,Clear,210,2013-12-11 07:15:00
1:35 AM,10.4,8.6,92,30.38,5.0,South,4.6,-,N/A,,Clear,180,2013-12-11 07:35:00
1:55 AM,12.2,10.4,92,30.38,7.0,SSE,3.5,-,N/A,,Clear,160,2013-12-11 07:55:00
2:15 AM,12.2,10.4,92,30.38,6.0,Calm,Calm,-,N/A,,Clear,0,2013-12-11 08:15:00
2:35 AM,10.4,8.6,92,30.38,5.0,Calm,Calm,-,N/A,,Clear,0,2013-12-11 08:35:00
2:55 AM,10.4,3.2,73,30.38,2.5,South,4.6,-,N/A,,Clear,180,2013-12-11 08:55:00
3:15 AM,8.6,6.8,92,30.38,4.0,Calm,Calm,-,N/A,,Clear,0,2013-12-11 09:15:00
3:35 AM,10.4,8.6,92,30.39,4.0,South,4.6,-,N/A,,Clear,190,2013-12-11 09:35:00
3:55 AM,12.2,12.2,100,30.39,4.0,Calm,Calm,-,N/A,,Clear,0,2013-12-11 09:55:00
4:15 AM,12.2,6.8,79,30.38,1.0,Calm,Calm,-,N/A,,Clear,0,2013-12-11 10:15:00
4:35 AM,15.8,10.4,79,30.37,5.0,South,4.6,-,N/A,,Clear,190,2013-12-11 10:35:00
4:55 AM,15.8,10.4,79,30.37,4.0,South,5.8,-,N/A,,Clear,190,2013-12-11 10:55:00
5:15 AM,14.0,12.2,93,30.38,4.0,Calm,Calm,-,N/A,,Clear,0,2013-12-11 11:15:00
5:35 AM,14.0,10.4,86,30.39,3.0,SSW,5.8,-,N/A,,Clear,200,2013-12-11 11:35:00
5:55 AM,15.8,12.2,86,30.39,4.0,SSW,3.5,-,N/A,,Clear,200,2013-12-11 11:55:00
6:15 AM,17.6,17.6,100,30.38,5.0,South,6.9,-,N/A,,Clear,190,2013-12-11 12:15:00
6:35 AM,19.4,15.8,86,30.38,6.0,South,8.1,-,N/A,,Clear,180,2013-12-11 12:35:00
6:55 AM,19.4,17.6,93,30.38,5.0,South,10.4,-,N/A,,Clear,180,2013-12-11 12:55:00
7:15 AM,19.4,17.6,93,30.39,5.0,South,8.1,-,N/A,,Clear,190,2013-12-11 13:15:00
7:35 AM,19.4,17.6,93,30.40,5.0,South,6.9,-,N/A,,Clear,190,2013-12-11 13:35:00
7:55 AM,21.2,17.6,86,30.40,6.0,South,6.9,-,N/A,,Clear,190,2013-12-11 13:55:00
8:15 AM,21.2,19.4,93,30.40,7.0,South,5.8,-,N/A,,Clear,180,2013-12-11 14:15:00
8:35 AM,23.0,21.2,93,30.41,7.0,South,5.8,-,N/A,,Clear,180,2013-12-11 14:35:00
8:55 AM,24.8,21.2,86,30.42,7.0,SSW,5.8,-,N/A,,Clear,210,2013-12-11 14:55:00
9:15 AM,24.8,23.0,93,30.43,9.0,WSW,5.8,-,N/A,,Clear,250,2013-12-11 15:15:00
9:35 AM,26.6,23.0,86,30.44,10.0,SW,8.1,-,N/A,,Clear,220,2013-12-11 15:35:00
9:55 AM,28.4,23.0,80,30.43,10.0,SW,9.2,-,N/A,,Clear,220,2013-12-11 15:55:00
10:15 AM,30.2,24.8,80,30.42,10.0,SW,12.7,-,N/A,,Clear,220,2013-12-11 16:15:00
10:35 AM,32.0,24.8,75,30.42,10.0,SW,13.8,-,N/A,,Clear,230,2013-12-11 16:35:00
10:55 AM,33.8,24.8,70,30.43,10.0,WSW,15.0,19.6,N/A,,Clear,250,2013-12-11 16:55:00
11:15 AM,33.8,24.8,70,30.42,10.0,WSW,12.7,16.1,N/A,,Clear,250,2013-12-11 17:15:00
11:35 AM,33.8,24.8,70,30.41,10.0,WSW,11.5,16.1,N/A,,Clear,240,2013-12-11 17:35:00
11:55 AM,35.6,24.8,65,30.41,10.0,WSW,13.8,-,N/A,,Clear,240,2013-12-11 17:55:00
12:15 PM,35.6,24.8,65,30.40,10.0,West,9.2,-,N/A,,Clear,270,2013-12-11 18:15:00
12:35 PM,33.8,23.0,65,30.40,10.0,West,15.0,-,N/A,,Clear,280,2013-12-11 18:35:00
12:55 PM,33.8,23.0,65,30.41,10.0,West,17.3,24.2,0.01,,Partly Cloudy,280,2013-12-11 18:55:00
1:15 PM,33.8,21.2,60,30.41,10.0,West,12.7,-,N/A,,Partly Cloudy,280,2013-12-11 19:15:00
1:35 PM,33.8,21.2,60,30.42,10.0,WNW,13.8,-,N/A,,Clear,300,2013-12-11 19:35:00
1:55 PM,33.8,21.2,60,30.42,10.0,WNW,9.2,16.1,N/A,,Clear,300,2013-12-11 19:55:00
2:15 PM,32.0,19.4,60,30.43,10.0,NW,15.0,-,N/A,,Clear,310,2013-12-11 20:15:00
2:35 PM,30.2,19.4,64,30.43,10.0,NW,12.7,-,N/A,,Clear,310,2013-12-11 20:35:00
2:55 PM,30.2,19.4,64,30.44,10.0,WNW,11.5,-,N/A,,Clear,300,2013-12-11 20:55:00
3:15 PM,30.2,19.4,64,30.45,10.0,WNW,10.4,-,N/A,,Clear,300,2013-12-11 21:15:00
3:35 PM,30.2,19.4,64,30.46,10.0,NW,10.4,-,N/A,,Clear,310,2013-12-11 21:35:00
3:55 PM,30.2,19.4,64,30.47,10.0,NW,11.5,-,N/A,,Clear,310,2013-12-11 21:55:00
4:15 PM,30.2,19.4,64,30.48,10.0,NW,9.2,-,N/A,,Mostly Cloudy,310,2013-12-11 22:15:00
4:35 PM,30.2,19.4,64,30.49,10.0,NW,8.1,-,N/A,,Overcast,320,2013-12-11 22:35:00
4:55 PM,30.2,19.4,64,30.50,10.0,NNW,9.2,-,N/A,,Overcast,340,2013-12-11 22:55:00
5:15 PM,28.4,17.6,64,30.50,10.0,North,9.2,-,N/A,,Overcast,350,2013-12-11 23:15:00
5:35 PM,28.4,17.6,64,30.51,10.0,North,8.1,-,N/A,,Scattered Clouds,350,2013-12-11 23:35:00
5:55 PM,26.6,15.8,64,30.52,10.0,NNW,9.2,-,N/A,,Clear,340,2013-12-11 23:55:00
6:15 PM,26.6,15.8,64,30.53,10.0,NNW,8.1,16.1,N/A,,Mostly Cloudy,340,2013-12-12 00:15:00
6:35 PM,26.6,15.8,64,30.54,10.0,North,9.2,17.3,N/A,,Overcast,360,2013-12-12 00:35:00
6:55 PM,26.6,15.8,64,30.55,10.0,North,9.2,-,N/A,,Overcast,350,2013-12-12 00:55:00
7:15 PM,24.8,15.8,69,30.56,10.0,North,6.9,-,N/A,,Overcast,10,2013-12-12 01:15:00
7:35 PM,24.8,15.8,69,30.57,10.0,North,8.1,16.1,N/A,,Overcast,10,2013-12-12 01:35:00
7:55 PM,24.8,15.8,69,30.57,10.0,NNW,8.1,-,N/A,,Mostly Cloudy,340,2013-12-12 01:55:00
8:15 PM,23.0,14.0,68,30.58,10.0,NNW,5.8,-,N/A,,Mostly Cloudy,340,2013-12-12 02:15:00
8:35 PM,21.2,12.2,68,30.58,10.0,NNW,5.8,-,N/A,,Partly Cloudy,340,2013-12-12 02:35:00
8:55 PM,21.2,12.2,68,30.58,10.0,NNW,4.6,-,N/A,,Clear,340,2013-12-12 02:55:00
9:15 PM,21.2,12.2,68,30.59,10.0,North,5.8,-,N/A,,Clear,350,2013-12-12 03:15:00
9:35 PM,19.4,12.2,74,30.60,10.0,NNW,5.8,-,N/A,,Clear,330,2013-12-12 03:35:00
9:55 PM,19.4,10.4,68,30.60,10.0,NNW,6.9,-,N/A,,Clear,330,2013-12-12 03:55:00
10:15 PM,17.6,10.4,73,30.61,10.0,NNW,5.8,-,N/A,,Clear,330,2013-12-12 04:15:00
10:35 PM,17.6,10.4,73,30.61,10.0,NNW,6.9,-,N/A,,Clear,330,2013-12-12 04:35:00
10:55 PM,19.4,8.6,63,30.61,10.0,NNW,9.2,-,N/A,,Clear,330,2013-12-12 04:55:00
11:15 PM,15.8,6.8,68,30.62,10.0,NW,5.8,-,N/A,,Clear,310,2013-12-12 05:15:00
11:35 PM,15.8,8.6,73,30.63,10.0,NNW,8.1,-,N/A,,Clear,330,2013-12-12 05:35:00
11:55 PM,17.6,6.8,63,30.63,10.0,NNW,6.9,-,N/A,,Clear,330,2013-12-12 05:55:00